Location: Innsbruck
(47.2657°N, 11.3914°E)
Time: 03:56:02
(UTC+01:00)

ISS - Visible Passes

Search period start: 21 February 2024 00:00
Search period end: 02 March 2024 00:00
Orbit: 415 x 417 km, 51.6° (Epoch: 20 February)

Date Brightness Start Highest point End Pass type
(mag) Time Alt. Az. Time Alt. Az. Time Alt. Az.
21 Feb -1.2 04:32:56 20° ESE 04:32:56 20° ESE 04:34:29 10° E visible
21 Feb -3.7 06:05:50 18° WSW 06:08:09 68° NNW 06:11:31 10° ENE visible
22 Feb -3.9 05:19:19 75° SW 05:19:33 86° SSE 05:22:56 10° ENE visible
23 Feb -1.5 04:32:41 25° ENE 04:32:41 25° ENE 04:34:17 10° ENE visible
23 Feb -3.1 06:05:35 18° WNW 06:07:49 44° NNW 06:11:04 10° ENE visible
24 Feb -3.5 05:18:52 52° NW 05:19:05 54° NNW 05:22:24 10° ENE visible
25 Feb -1.6 04:32:05 26° ENE 04:32:05 26° ENE 04:33:43 10° ENE visible
25 Feb -2.8 06:04:58 15° WNW 06:07:25 37° N 06:10:34 10° ENE visible
26 Feb -3.0 05:18:07 37° NNW 05:18:35 39° N 05:21:47 10° ENE visible
27 Feb -1.7 04:31:14 26° NE 04:31:14 26° NE 04:32:59 10° ENE visible
27 Feb -2.8 06:04:06 13° WNW 06:06:53 40° N 06:10:05 10° E visible
28 Feb -2.7 05:17:11 32° NNW 05:17:59 37° N 05:21:09 10° ENE visible
29 Feb -1.8 04:30:14 27° NE 04:30:14 27° NE 04:32:13 10° ENE visible
29 Feb -3.3 06:03:06 12° WNW 06:06:10 55° NNE 06:09:28 10° E visible
01 Mar -0.1 03:43:17 10° ENE 03:43:17 10° ENE 03:43:18 10° ENE visible
01 Mar -2.9 05:16:09 32° NW 05:17:14 44° NNE 05:20:29 10° E visible
